sat.trackr.live / text

‹ back to catalog

STARLINK-2105

NORAD 47385 · 2021-005AN

PAYLOAD ACTIVE UNKNOWN

§ Identity

Operator
Country
US
Launch date
2021-01-20
Launch site
AFETR
Launch vehicle
Mass (kg)
RCS (m²)

Purposes: comms

External: N2YO · Heavens-Above · Gunter

§ Orbital elements

Epoch: 2026-05-24T23:24:34.718976Z

Period
94.01 min
Inclination
53.1610°
Eccentricity
0.0001608
Mean motion
15.31706460 rev/d
Perigee alt
469.6 km
Apogee alt
471.8 km
Semi-major
6,848.9 km
B*
8.9253e-5
RAAN
42.2834°
Arg perigee
100.1445°
Mean anomaly
259.9738°
Rev number
29,506

§ Raw data

STARLINK-21051 47385U 21005AN  26144.97540184  .00002406  00000+0  89253-4 0  99922 47385  53.1610  42.2834 0001608 100.1445 259.9738 15.31706460295066

JSON: /api/v1/satellites/47385 · /tle

For live sub-satellite position, see the globe view (requires WebGL).

§ Visibility from observer

Set your observer location to see the next 7 days of passes ≥ 10°. The values pass through the URL so the page stays shareable.

No JS? Fill the form by hand. The geolocation button needs JavaScript.